This is the latest recevied weather packets stored in our database for station/object KJ7HSW. If no packets are shown the sender has not sent any weather packets the latest 10 day(s).
| Time | Temp. | Humidity | Pressure | Rain* | Wind** | Luminosity | Snow |
|---|---|---|---|---|---|---|---|
| 1777874608 | 16.11° C | 65% | 1010 hPa | 0 mm | - | 0 W/m² | - |
| 1777874306 | 16.67° C | 63% | 1010.2 hPa | 0 mm | - | 0 W/m² | - |
| 1777874003 | 15.56° C | 63% | 1010.2 hPa | 0 mm | - | 0 W/m² | - |
| 1777873700 | 15.56° C | 67% | 1010 hPa | 0 mm | - | 0 W/m² | - |
| 1777873398 | 15° C | 67% | 1010.3 hPa | 0 mm | - | 0 W/m² | - |
| 1777873094 | 15° C | 68% | 1010.4 hPa | 0 mm | - | 0 W/m² | - |
| 1777872791 | 15° C | 67% | 1010.1 hPa | 0 mm | - | 0 W/m² | - |
| 1777872488 | 15° C | 66% | 1010 hPa | 0 mm | - | 0 W/m² | - |
| 1777872187 | 15° C | 67% | 1010.3 hPa | 0 mm | - | 0 W/m² | - |
| 1777871883 | 15° C | 67% | 1010.1 hPa | 0 mm | - | 0 W/m² | - |
| 1777871580 | 15° C | 71% | 1010.3 hPa | 0 mm | - | 0 W/m² | - |
| 1777871276 | 15° C | 72% | 1010.3 hPa | 0 mm | - | 0 W/m² | - |
| 1777870973 | 15.56° C | 71% | 1010.4 hPa | 0 mm | - | 0 W/m² | - |
| 1777870670 | 15.56° C | 71% | 1010.3 hPa | 0 mm | - | 0 W/m² | - |
| 1777870365 | 15.56° C | 70% | 1010.4 hPa | 0 mm | - | 0 W/m² | - |
| 1777870063 | 16.11° C | 67% | 1010.3 hPa | 0 mm | - | 0 W/m² | - |
| 1777869760 | 16.11° C | 68% | 1010.1 hPa | 0 mm | - | 0 W/m² | - |
| 1777869457 | 16.11° C | 67% | 1010.3 hPa | 0 mm | - | 0 W/m² | - |
| 1777869154 | 16.11° C | 67% | 1010.3 hPa | 0 mm | - | 0 W/m² | - |
| 1777868852 | 16.11° C | 66% | 1010.2 hPa | 0 mm | - | 0 W/m² | - |
| 1777868548 | 16.67° C | 65% | 1010.2 hPa | 0 mm | - | 0 W/m² | - |
| 1777868244 | 16.67° C | 64% | 1010.3 hPa | 0 mm | - | 0 W/m² | - |
| 1777867940 | 16.67° C | 65% | 1010.1 hPa | 0 mm | - | 0 W/m² | - |
| 1777867637 | 16.67° C | 65% | 1010.2 hPa | 0 mm | - | 0 W/m² | - |
| 1777867334 | 17.22° C | 64% | 1010.2 hPa | 0 mm | - | 0 W/m² | - |
* Rain latest hour (hover to see other rain measurements)
** Current wind speed in m/s (hover to see current wind gust speed)